| time (UTC) | temp F | wind direction | speed knots | gust knots | rain 1hr in | rain 24hr in | rain mn in | humidity % | barometer mb |
| 20260507210007 | 66 | 360 | 3.5 | 6.1 | 0.00 | 0.00 | 0.00 | 59 | 1006.6 |
| 20260507205559 | 66 | 30 | 3.5 | 6.1 | 0.00 | 0.00 | 0.00 | 56 | 1006.6 |
| 20260507205049 | 65 | 42 | 1.7 | 4.3 | 0.00 | 0.00 | 0.00 | 59 | 1006.7 |
| 20260507204504 | 65 | 61 | 0.9 | 5.2 | 0.00 | 0.00 | 0.00 | 60 | 1006.7 |
| 20260507204054 | 65 | 86 | 0.0 | 5.2 | 0.00 | 0.00 | 0.00 | 58 | 1006.8 |
| 20260507203541 | 65 | 18 | 2.6 | 5.2 | 0.00 | 0.00 | 0.00 | 57 | 1006.9 |
| 20260507203027 | 66 | 348 | 2.6 | 5.2 | 0.00 | 0.00 | 0.00 | 57 | 1006.9 |
| 20260507202601 | 65 | 47 | 1.7 | 5.2 | 0.00 | 0.00 | 0.00 | 57 | 1007.1 |
| 20260507202052 | 65 | 75 | 3.5 | 5.2 | 0.00 | 0.00 | 0.00 | 58 | 1007.1 |
| 20260507201507 | 65 | 36 | 1.7 | 5.2 | 0.00 | 0.00 | 0.00 | 57 | 1007.2 |
| 20260507201058 | 65 | 18 | 1.7 | 6.1 | 0.00 | 0.00 | 0.00 | 59 | 1007.2 |
| 20260507200546 | 64 | 46 | 1.7 | 6.1 | 0.00 | 0.00 | 0.00 | 58 | 1007.2 |
| 20260507200007 | 63 | 331 | 1.7 | 6.1 | 0.00 | 0.00 | 0.00 | 61 | 1007.4 |
| 20260507195554 | 63 | 66 | 0.9 | 5.2 | 0.00 | 0.00 | 0.00 | 59 | 1007.5 |
| 20260507195044 | 63 | 60 | 1.7 | 7.8 | 0.00 | 0.00 | 0.00 | 62 | 1007.5 |
| 20260507194504 | 63 | 9 | 1.7 | 7.8 | 0.00 | 0.00 | 0.00 | 62 | 1007.4 |
| 20260507194055 | 63 | 202 | 0.9 | 5.2 | 0.00 | 0.00 | 0.00 | 59 | 1007.5 |
| 20260507193542 | 63 | 169 | 1.7 | 7.0 | 0.00 | 0.00 | 0.00 | 62 | 1007.6 |
| 20260507193011 | 63 | 51 | 2.6 | 5.2 | 0.00 | 0.00 | 0.00 | 63 | 1007.7 |
| 20260507192553 | 62 | 276 | 0.9 | 5.2 | 0.00 | 0.00 | 0.00 | 61 | 1007.7 |
| 20260507192040 | 62 | 38 | 0.9 | 5.2 | 0.00 | 0.00 | 0.00 | 63 | 1007.8 |
| 20260507191501 | 62 | 255 | 1.7 | 7.0 | 0.00 | 0.00 | 0.00 | 63 | 1007.8 |
| 20260507191051 | 61 | 14 | 2.6 | 6.1 | 0.00 | 0.00 | 0.00 | 64 | 1007.8 |
| 20260507190539 | 61 | 313 | 1.7 | 7.0 | 0.00 | 0.00 | 0.00 | 63 | 1007.9 |
| 20260507190059 | 61 | 355 | 3.5 | 7.0 | 0.00 | 0.00 | 0.00 | 63 | 1007.9 |
| 20260507185547 | 60 | 355 | 0.9 | 4.3 | 0.00 | 0.00 | 0.00 | 64 | 1008.0 |
| 20260507185036 | 61 | 360 | 2.6 | 7.0 | 0.00 | 0.00 | 0.00 | 64 | 1008.1 |
| 20260507184559 | 61 | 299 | 1.7 | 7.0 | 0.00 | 0.00 | 0.00 | 64 | 1008.2 |
| 20260507184047 | 61 | 26 | 1.7 | 6.1 | 0.00 | 0.00 | 0.00 | 66 | 1008.2 |
| 20260507183539 | 60 | 50 | 3.5 | 6.1 | 0.00 | 0.00 | 0.00 | 65 | 1008.2 |
| 20260507183059 | 60 | 40 | 2.6 | 4.3 | 0.00 | 0.00 | 0.00 | 65 | 1008.1 |
| 20260507182546 | 59 | 5 | 0.0 | 4.3 | 0.00 | 0.00 | 0.00 | 66 | 1008.2 |
| 20260507182034 | 59 | 58 | 2.6 | 5.2 | 0.00 | 0.00 | 0.00 | 66 | 1008.3 |
| 20260507181503 | 58 | 51 | 1.7 | 5.2 | 0.00 | 0.00 | 0.00 | 68 | 1008.4 |
| 20260507181054 | 58 | 109 | 0.0 | 3.5 | 0.00 | 0.00 | 0.00 | 68 | 1008.5 |
| 20260507180541 | 57 | 53 | 1.7 | 3.5 | 0.00 | 0.00 | 0.00 | 67 | 1008.6 |
| 20260507180103 | 57 | 355 | 0.9 | 3.5 | 0.00 | 0.00 | 0.00 | 67 | 1008.7 |
| 20260507175549 | 57 | 327 | 2.6 | 4.3 | 0.00 | 0.00 | 0.00 | 69 | 1008.6 |
| 20260507175038 | 57 | 42 | 2.6 | 5.2 | 0.00 | 0.00 | 0.00 | 68 | 1008.8 |
| 20260507174604 | 57 | 346 | 2.6 | 5.2 | 0.00 | 0.00 | 0.00 | 70 | 1008.8 |
| 20260507174048 | 57 | 309 | 2.6 | 4.3 | 0.00 | 0.00 | 0.00 | 68 | 1008.8 |
| 20260507173535 | 56 | 355 | 1.7 | 5.2 | 0.00 | 0.00 | 0.00 | 68 | 1008.8 |
| 20260507173013 | 56 | 355 | 2.6 | 5.2 | 0.00 | 0.00 | 0.00 | 70 | 1008.8 |
| 20260507172558 | 56 | 119 | 0.0 | 2.6 | 0.00 | 0.00 | 0.00 | 72 | 1008.9 |
| 20260507172045 | 55 | 28 | 0.9 | 3.5 | 0.00 | 0.00 | 0.00 | 70 | 1008.9 |
| 20260507171505 | 55 | 313 | 0.0 | 4.3 | 0.00 | 0.00 | 0.00 | 69 | 1009.0 |
| 20260507171056 | 55 | 349 | 2.6 | 4.3 | 0.00 | 0.00 | 0.00 | 71 | 1008.9 |
| 20260507170544 | 55 | 120 | 2.6 | 4.3 | 0.00 | 0.00 | 0.00 | 70 | 1008.9 |
| 20260507170002 | 55 | 20 | 0.9 | 5.2 | 0.00 | 0.00 | 0.00 | 69 | 1008.9 |
| 20260507165552 | 55 | 38 | 1.7 | 7.0 | 0.00 | 0.00 | 0.00 | 70 | 1008.9 |
| 20260507165041 | 55 | 13 | 1.7 | 7.0 | 0.00 | 0.00 | 0.00 | 70 | 1009.0 |
| 20260507164502 | 55 | 59 | 2.6 | 7.0 | 0.00 | 0.00 | 0.00 | 71 | 1009.0 |
| 20260507164052 | 54 | 49 | 2.6 | 7.0 | 0.00 | 0.00 | 0.00 | 72 | 1009.0 |
| 20260507163540 | 54 | 61 | 2.6 | 5.2 | 0.00 | 0.00 | 0.00 | 71 | 1009.0 |
| 20260507163009 | 54 | 327 | 3.5 | 6.1 | 0.00 | 0.00 | 0.00 | 71 | 1009.0 |
| 20260507162601 | 54 | 250 | 0.9 | 3.5 | 0.00 | 0.00 | 0.00 | 72 | 1009.0 |
| 20260507162049 | 54 | 276 | 0.9 | 5.2 | 0.00 | 0.00 | 0.00 | 72 | 1009.0 |
| 20260507161509 | 53 | 9 | 2.6 | 5.2 | 0.00 | 0.00 | 0.00 | 72 | 1009.0 |
| 20260507161058 | 53 | 51 | 2.6 | 7.0 | 0.00 | 0.00 | 0.00 | 73 | 1009.0 |
| 20260507160548 | 53 | 16 | 2.6 | 7.0 | 0.00 | 0.00 | 0.00 | 73 | 1009.0 |
| 20260507160004 | 53 | 55 | 1.7 | 4.3 | 0.00 | 0.00 | 0.00 | 74 | 1009.0 |
| 20260507155553 | 52 | 48 | 0.9 | 6.1 | 0.00 | 0.00 | 0.00 | 72 | 1009.1 |
| 20260507155041 | 52 | 346 | 1.7 | 6.1 | 0.00 | 0.00 | 0.00 | 73 | 1009.1 |
| 20260507154511 | 52 | 22 | 1.7 | 6.1 | 0.00 | 0.00 | 0.00 | 73 | 1009.0 |
| 20260507154101 | 52 | 62 | 2.6 | 6.1 | 0.00 | 0.00 | 0.00 | 73 | 1009.0 |
| 20260507153550 | 52 | 28 | 1.7 | 7.0 | 0.00 | 0.00 | 0.00 | 75 | 1009.0 |
| 20260507153008 | 52 | 165 | 0.9 | 7.0 | 0.00 | 0.00 | 0.00 | 74 | 1009.0 |
| 20260507152558 | 52 | 235 | 1.7 | 5.2 | 0.00 | 0.00 | 0.00 | 75 | 1009.0 |
| 20260507152047 | 51 | 315 | 2.6 | 5.2 | 0.00 | 0.00 | 0.00 | 75 | 1009.0 |
| 20260507151516 | 51 | 286 | 0.0 | 5.2 | 0.00 | 0.00 | 0.00 | 76 | 1009.0 |
| 20260507151004 | 51 | 26 | 2.6 | 6.1 | 0.00 | 0.00 | 0.00 | 75 | 1009.0 |
| 20260507150555 | 51 | 298 | 1.7 | 4.3 | 0.00 | 0.00 | 0.00 | 75 | 1009.0 |
| 20260507150013 | 51 | 360 | 1.7 | 4.3 | 0.00 | 0.00 | 0.00 | 76 | 1009.0 |
| 20260507145502 | 50 | 42 | 2.6 | 5.2 | 0.00 | 0.00 | 0.00 | 76 | 1009.0 |
| 20260507145055 | 50 | 89 | 2.6 | 5.2 | 0.00 | 0.00 | 0.00 | 76 | 1009.0 |
| 20260507144515 | 50 | 284 | 0.9 | 4.3 | 0.00 | 0.00 | 0.00 | 76 | 1009.0 |
| 20260507144102 | 50 | 315 | 0.0 | 4.3 | 0.00 | 0.00 | 0.00 | 76 | 1009.0 |
| 20260507143551 | 50 | 250 | 1.7 | 4.3 | 0.00 | 0.00 | 0.00 | 76 | 1009.0 |
| 20260507143010 | 50 | 271 | 1.7 | 5.2 | 0.00 | 0.00 | 0.00 | 76 | 1009.0 |
| 20260507142559 | 50 | 262 | 1.7 | 5.2 | 0.00 | 0.00 | 0.00 | 76 | 1008.9 |
| 20260507142046 | 50 | 79 | 1.7 | 5.2 | 0.00 | 0.00 | 0.00 | 76 | 1008.8 |
| 20260507141508 | 50 | 35 | 0.0 | 2.6 | 0.00 | 0.00 | 0.00 | 76 | 1008.9 |
| 20260507141058 | 50 | 360 | 0.0 | 2.6 | 0.00 | 0.00 | 0.00 | 76 | 1008.8 |
| 20260507140546 | 50 | 22 | 0.9 | 2.6 | 0.00 | 0.00 | 0.00 | 76 | 1008.9 |
| 20260507140012 | 50 | 332 | 0.0 | 3.5 | 0.00 | 0.00 | 0.00 | 76 | 1008.8 |
| 20260507135502 | 50 | 355 | 1.7 | 3.5 | 0.00 | 0.00 | 0.00 | 76 | 1008.7 |
| 20260507135055 | 50 | 34 | 0.9 | 3.5 | 0.00 | 0.00 | 0.00 | 76 | 1008.7 |
| 20260507134510 | 50 | 84 | 0.9 | 3.5 | 0.00 | 0.00 | 0.00 | 76 | 1008.7 |
| 20260507134101 | 50 | 286 | 1.7 | 6.1 | 0.00 | 0.00 | 0.00 | 76 | 1008.7 |
| 20260507133549 | 50 | 281 | 0.0 | 6.1 | 0.00 | 0.00 | 0.00 | 76 | 1008.7 |
| 20260507133010 | 50 | 331 | 0.9 | 2.6 | 0.00 | 0.00 | 0.00 | 76 | 1008.5 |
| 20260507132601 | 50 | 62 | 0.0 | 2.6 | 0.00 | 0.00 | 0.00 | 76 | 1008.6 |
| 20260507132048 | 50 | 306 | 0.9 | 2.6 | 0.00 | 0.00 | 0.00 | 76 | 1008.5 |
| 20260507131518 | 51 | 348 | 0.0 | 2.6 | 0.00 | 0.00 | 0.00 | 76 | 1008.4 |
| 20260507131052 | 50 | 347 | 0.9 | 3.5 | 0.00 | 0.00 | 0.00 | 76 | 1008.4 |
| 20260507130544 | 51 | 19 | 0.9 | 3.5 | 0.00 | 0.00 | 0.00 | 76 | 1008.5 |
| 20260507130110 | 51 | 339 | 0.9 | 2.6 | 0.00 | 0.00 | 0.00 | 76 | 1008.5 |
| 20260507125550 | 51 | 336 | 0.0 | 2.6 | 0.00 | 0.00 | 0.00 | 76 | 1008.4 |
| 20260507125035 | 51 | 336 | 0.9 | 2.6 | 0.00 | 0.00 | 0.00 | 76 | 1008.4 |
| 20260507124505 | 51 | 340 | 0.9 | 2.6 | 0.00 | 0.00 | 0.00 | 76 | 1008.4 |
| 20260507124057 | 51 | 348 | 0.0 | 3.5 | 0.00 | 0.00 | 0.00 | 76 | 1008.4 |
| 20260507123546 | 51 | 348 | 0.9 | 3.5 | 0.00 | 0.00 | 0.00 | 76 | 1008.4 |
| 20260507123005 | 51 | 333 | 0.0 | 3.5 | 0.00 | 0.00 | 0.00 | 76 | 1008.5 |
| 20260507122555 | 51 | 333 | 0.9 | 3.5 | 0.00 | 0.00 | 0.00 | 76 | 1008.5 |
| 20260507122043 | 51 | 355 | 1.7 | 3.5 | 0.00 | 0.00 | 0.00 | 76 | 1008.6 |
| 20260507121505 | 51 | 19 | 1.7 | 3.5 | 0.00 | 0.00 | 0.00 | 76 | 1008.6 |
| 20260507121056 | 51 | 107 | 0.0 | 2.6 | 0.00 | 0.00 | 0.00 | 76 | 1008.6 |
| 20260507120547 | 51 | 342 | 0.0 | 4.3 | 0.00 | 0.00 | 0.00 | 76 | 1008.6 |
| 20260507120005 | 51 | 316 | 0.0 | 2.6 | 0.00 | 0.00 | 0.00 | 76 | 1008.7 |
| 20260507115553 | 51 | 313 | 0.0 | 2.6 | 0.00 | 0.00 | 0.00 | 76 | 1008.8 |
| 20260507115041 | 51 | 319 | 0.9 | 6.1 | 0.00 | 0.00 | 0.00 | 76 | 1008.8 |
| 20260507114512 | 51 | 298 | 1.7 | 6.1 | 0.00 | 0.00 | 0.00 | 76 | 1008.8 |
| 20260507114104 | 51 | 306 | 0.0 | 1.7 | 0.00 | 0.00 | 0.00 | 76 | 1008.8 |
| 20260507113556 | 51 | 306 | 0.0 | 2.6 | 0.00 | 0.00 | 0.00 | 76 | 1008.7 |
| 20260507113012 | 51 | 304 | 0.0 | 2.6 | 0.00 | 0.00 | 0.00 | 76 | 1008.8 |
| 20260507112501 | 51 | 273 | 0.9 | 2.6 | 0.00 | 0.00 | 0.00 | 76 | 1008.8 |
| 20260507112054 | 51 | 263 | 0.9 | 1.7 | 0.00 | 0.00 | 0.00 | 76 | 1008.8 |
| 20260507111512 | 51 | 56 | 0.0 | 1.7 | 0.00 | 0.00 | 0.00 | 76 | 1008.9 |
| 20260507111102 | 52 | 55 | 0.0 | 3.5 | 0.00 | 0.00 | 0.00 | 76 | 1008.9 |
| 20260507110550 | 52 | 56 | 0.9 | 4.3 | 0.00 | 0.00 | 0.00 | 76 | 1008.9 |
| 20260507110008 | 52 | 321 | 1.7 | 4.3 | 0.00 | 0.00 | 0.00 | 76 | 1008.9 |
| 20260507105559 | 52 | 340 | 0.9 | 6.1 | 0.00 | 0.00 | 0.00 | 76 | 1008.9 |
| 20260507105049 | 52 | 312 | 0.0 | 4.3 | 0.00 | 0.00 | 0.00 | 77 | 1009.0 |
| 20260507104505 | 52 | 82 | 0.9 | 4.3 | 0.00 | 0.00 | 0.00 | 76 | 1009.0 |
| 20260507104055 | 52 | 34 | 0.9 | 3.5 | 0.00 | 0.00 | 0.00 | 77 | 1009.0 |
| 20260507103544 | 52 | 46 | 0.0 | 2.6 | 0.00 | 0.00 | 0.00 | 77 | 1009.0 |
| 20260507103003 | 52 | 332 | 0.0 | 3.5 | 0.00 | 0.00 | 0.00 | 77 | 1009.0 |
| 20260507102554 | 52 | 323 | 0.9 | 3.5 | 0.00 | 0.00 | 0.00 | 76 | 1009.1 |
| 20260507102042 | 52 | 313 | 0.9 | 4.3 | 0.00 | 0.00 | 0.00 | 76 | 1009.1 |
| 20260507101503 | 52 | 304 | 0.9 | 4.3 | 0.00 | 0.00 | 0.00 | 76 | 1009.2 |
| 20260507101053 | 52 | 292 | 1.7 | 3.5 | 0.00 | 0.00 | 0.00 | 76 | 1009.1 |
| 20260507100540 | 52 | 355 | 0.9 | 5.2 | 0.00 | 0.00 | 0.00 | 76 | 1009.2 |
| 20260507100113 | 52 | 348 | 1.7 | 5.2 | 0.00 | 0.00 | 0.00 | 76 | 1009.1 |
| 20260507095550 | 52 | 72 | 1.7 | 5.2 | 0.00 | 0.00 | 0.00 | 76 | 1009.3 |
| 20260507095039 | 52 | 14 | 1.7 | 5.2 | 0.00 | 0.00 | 0.00 | 76 | 1009.3 |
| 20260507094600 | 52 | 23 | 1.7 | 4.3 | 0.00 | 0.00 | 0.00 | 76 | 1009.3 |
| 20260507094049 | 52 | 341 | 1.7 | 4.3 | 0.00 | 0.00 | 0.00 | 76 | 1009.3 |
| 20260507093537 | 52 | 334 | 0.0 | 4.3 | 0.00 | 0.00 | 0.00 | 76 | 1009.3 |
| 20260507093100 | 53 | 336 | 1.7 | 4.3 | 0.00 | 0.00 | 0.00 | 76 | 1009.3 |
| 20260507092546 | 53 | 19 | 0.9 | 4.3 | 0.00 | 0.00 | 0.00 | 76 | 1009.4 |
| 20260507092036 | 53 | 325 | 1.7 | 4.3 | 0.00 | 0.00 | 0.00 | 76 | 1009.4 |
| 20260507091559 | 53 | 16 | 1.7 | 4.3 | 0.00 | 0.00 | 0.00 | 76 | 1009.4 |
| 20260507091047 | 53 | 355 | 1.7 | 4.3 | 0.00 | 0.00 | 0.00 | 77 | 1009.6 |
| 20260507090535 | 53 | 34 | 2.6 | 4.3 | 0.00 | 0.00 | 0.00 | 77 | 1009.6 |
| 20260507090055 | 53 | 5 | 0.9 | 3.5 | 0.00 | 0.00 | 0.00 | 77 | 1009.6 |
| 20260507085544 | 53 | 343 | 0.0 | 3.5 | 0.00 | 0.00 | 0.00 | 77 | 1009.7 |
| 20260507085033 | 53 | 344 | 1.7 | 3.5 | 0.00 | 0.00 | 0.00 | 77 | 1009.7 |
| 20260507084559 | 53 | 305 | 0.0 | 2.6 | 0.00 | 0.00 | 0.00 | 77 | 1009.7 |
| 20260507084044 | 53 | 305 | 0.0 | 2.6 | 0.00 | 0.00 | 0.00 | 77 | 1009.6 |
| 20260507083533 | 53 | 334 | 0.0 | 1.7 | 0.00 | 0.00 | 0.00 | 78 | 1009.5 |
| 20260507083004 | 53 | 294 | 0.0 | 3.5 | 0.00 | 0.00 | 0.00 | 78 | 1009.5 |
| 20260507082553 | 53 | 285 | 0.9 | 3.5 | 0.00 | 0.00 | 0.00 | 78 | 1009.7 |
| 20260507082045 | 53 | 342 | 0.9 | 3.5 | 0.00 | 0.00 | 0.00 | 78 | 1009.6 |
| 20260507081501 | 53 | 355 | 0.9 | 3.5 | 0.00 | 0.00 | 0.00 | 78 | 1009.6 |
| 20260507081052 | 53 | 317 | 0.9 | 3.5 | 0.00 | 0.00 | 0.00 | 78 | 1009.5 |
| 20260507080541 | 53 | 12 | 0.9 | 4.3 | 0.00 | 0.00 | 0.00 | 78 | 1009.5 |
| 20260507075548 | 53 | 320 | 0.0 | 2.6 | 0.00 | 0.00 | 0.00 | 78 | 1009.6 |
| 20260507075037 | 53 | 355 | 1.7 | 2.6 | 0.00 | 0.00 | 0.00 | 78 | 1009.6 |
| 20260507074625 | 53 | 266 | 0.0 | 2.6 | 0.00 | 0.00 | 0.00 | 78 | 1009.6 |
| 20260507074048 | 53 | 237 | 0.0 | 2.6 | 0.00 | 0.00 | 0.00 | 78 | 1009.5 |
| 20260507073537 | 53 | 355 | 0.0 | 3.5 | 0.00 | 0.00 | 0.00 | 78 | 1009.5 |
| 20260507073008 | 53 | 355 | 1.7 | 3.5 | 0.00 | 0.00 | 0.00 | 78 | 1009.5 |
| 20260507072558 | 53 | 345 | 0.0 | 4.3 | 0.00 | 0.00 | 0.00 | 78 | 1009.6 |
| 20260507072051 | 54 | 5 | 1.7 | 7.0 | 0.00 | 0.00 | 0.00 | 78 | 1009.5 |
| 20260507071509 | 54 | 11 | 0.9 | 4.3 | 0.00 | 0.00 | 0.00 | 78 | 1009.5 |
| 20260507071057 | 54 | 5 | 1.7 | 4.3 | 0.00 | 0.00 | 0.00 | 78 | 1009.5 |
| 20260507070546 | 54 | 336 | 0.0 | 3.5 | 0.00 | 0.00 | 0.00 | 78 | 1009.4 |
| 20260507070008 | 54 | 262 | 0.0 | 2.6 | 0.00 | 0.00 | 0.00 | 78 | 1009.3 |
| 20260507065554 | 54 | 267 | 0.0 | 2.6 | 0.00 | 0.00 | 0.00 | 78 | 1009.3 |
| 20260507065043 | 54 | 267 | 0.9 | 2.6 | 0.00 | 0.00 | 0.00 | 78 | 1009.3 |
| 20260507064507 | 54 | 319 | 0.0 | 3.5 | 0.00 | 0.00 | 0.00 | 78 | 1009.4 |
| 20260507064055 | 54 | 360 | 0.0 | 3.5 | 0.00 | 0.00 | 0.00 | 77 | 1009.4 |
| 20260507063543 | 54 | 35 | 0.0 | 2.6 | 0.00 | 0.00 | 0.00 | 77 | 1009.6 |
| 20260507063005 | 54 | 307 | 0.0 | 2.6 | 0.00 | 0.00 | 0.00 | 77 | 1009.5 |
| 20260507062555 | 54 | 303 | 0.0 | 3.5 | 0.00 | 0.00 | 0.00 | 77 | 1009.5 |
| 20260507062043 | 55 | 74 | 0.9 | 4.3 | 0.00 | 0.00 | 0.00 | 77 | 1009.5 |
| 20260507061503 | 55 | 327 | 1.7 | 5.2 | 0.00 | 0.00 | 0.00 | 76 | 1009.6 |
| 20260507061053 | 55 | 248 | 1.7 | 7.0 | 0.00 | 0.00 | 0.00 | 76 | 1009.5 |
| 20260507060541 | 55 | 311 | 2.6 | 7.0 | 0.00 | 0.00 | 0.00 | 76 | 1009.6 |
| 20260507060105 | 55 | 69 | 1.7 | 8.7 | 0.00 | 0.00 | 0.00 | 76 | 1009.6 |
| 20260507055549 | 56 | 340 | 3.5 | 8.7 | 0.00 | 0.00 | 0.00 | 76 | 1009.5 |
| 20260507055036 | 56 | 277 | 1.7 | 7.0 | 0.00 | 0.00 | 0.00 | 76 | 1009.4 |
| 20260507054506 | 56 | 350 | 2.6 | 7.0 | 0.00 | 0.00 | 0.00 | 76 | 1009.4 |
| 20260507054053 | 56 | 11 | 1.7 | 5.2 | 0.00 | 0.00 | 0.00 | 76 | 1009.4 |
| 20260507053542 | 56 | 42 | 2.6 | 7.0 | 0.00 | 0.00 | 0.00 | 75 | 1009.4 |
| 20260507053003 | 57 | 349 | 2.6 | 7.0 | 0.00 | 0.00 | 0.00 | 76 | 1009.3 |
| 20260507052555 | 57 | 34 | 1.7 | 3.5 | 0.00 | 0.00 | 0.00 | 75 | 1009.2 |
| 20260507052040 | 57 | 350 | 0.9 | 3.5 | 0.00 | 0.00 | 0.00 | 75 | 1009.1 |
| 20260507051510 | 57 | 77 | 0.9 | 3.5 | 0.00 | 0.00 | 0.00 | 75 | 1009.1 |
| 20260507051104 | 57 | 282 | 1.7 | 3.5 | 0.00 | 0.00 | 0.00 | 75 | 1009.2 |
| 20260507050552 | 57 | 290 | 0.0 | 2.6 | 0.00 | 0.00 | 0.00 | 75 | 1009.2 |
| 20260507050008 | 57 | 284 | 0.0 | 2.6 | 0.00 | 0.00 | 0.00 | 74 | 1009.1 |
| 20260507045601 | 57 | 14 | 0.9 | 2.6 | 0.00 | 0.00 | 0.00 | 74 | 1009.2 |
| 20260507045046 | 58 | 311 | 0.9 | 4.3 | 0.00 | 0.00 | 0.00 | 74 | 1009.2 |
| 20260507044507 | 58 | 315 | 1.7 | 5.2 | 0.00 | 0.00 | 0.00 | 74 | 1009.3 |
| 20260507044102 | 58 | 302 | 1.7 | 5.2 | 0.00 | 0.00 | 0.00 | 74 | 1009.2 |
| 20260507043546 | 58 | 297 | 0.0 | 8.7 | 0.00 | 0.00 | 0.00 | 73 | 1009.2 |
| 20260507043008 | 58 | 312 | 3.5 | 8.7 | 0.00 | 0.00 | 0.00 | 73 | 1009.1 |
| 20260507042558 | 59 | 315 | 2.6 | 8.7 | 0.00 | 0.00 | 0.00 | 73 | 1009.0 |
| 20260507042046 | 59 | 329 | 4.3 | 8.7 | 0.00 | 0.00 | 0.00 | 73 | 1009.1 |
| 20260507041513 | 59 | 29 | 3.5 | 10.4 | 0.00 | 0.00 | 0.00 | 74 | 1009.0 |
| 20260507041055 | 60 | 334 | 1.7 | 10.4 | 0.00 | 0.00 | 0.00 | 73 | 1009.0 |
| 20260507040541 | 60 | 355 | 2.6 | 6.1 | 0.00 | 0.00 | 0.00 | 75 | 1008.9 |
| 20260507040008 | 60 | 34 | 1.7 | 5.2 | 0.00 | 0.00 | 0.00 | 75 | 1008.8 |
| 20260507035558 | 61 | 321 | 1.7 | 4.3 | 0.00 | 0.00 | 0.00 | 75 | 1008.8 |
| 20260507035047 | 61 | 327 | 1.7 | 7.0 | 0.00 | 0.00 | 0.00 | 75 | 1008.6 |
| 20260507034511 | 61 | 329 | 2.6 | 7.0 | 0.00 | 0.00 | 0.00 | 75 | 1008.6 |
| 20260507034057 | 61 | 329 | 1.7 | 4.3 | 0.00 | 0.00 | 0.00 | 74 | 1008.5 |
| 20260507033547 | 61 | 19 | 1.7 | 4.3 | 0.00 | 0.00 | 0.00 | 74 | 1008.4 |
| 20260507033007 | 62 | 34 | 0.9 | 4.3 | 0.00 | 0.00 | 0.00 | 74 | 1008.3 |
| 20260507032557 | 62 | 26 | 2.6 | 5.2 | 0.00 | 0.00 | 0.00 | 74 | 1008.2 |
| 20260507032046 | 62 | 29 | 0.9 | 5.2 | 0.00 | 0.00 | 0.00 | 74 | 1008.2 |
| 20260507031505 | 62 | 14 | 2.6 | 6.1 | 0.00 | 0.00 | 0.00 | 74 | 1008.1 |
| 20260507031056 | 62 | 317 | 1.7 | 5.2 | 0.00 | 0.00 | 0.00 | 73 | 1008.0 |
| 20260507030539 | 63 | 52 | 1.7 | 5.2 | 0.00 | 0.00 | 0.00 | 73 | 1008.0 |
| 20260507030100 | 63 | 15 | 1.7 | 4.3 | 0.00 | 0.00 | 0.00 | 73 | 1007.9 |
| 20260507025549 | 63 | 360 | 0.9 | 4.3 | 0.00 | 0.00 | 0.00 | 73 | 1007.9 |
| 20260507025037 | 63 | 9 | 0.9 | 5.2 | 0.00 | 0.00 | 0.00 | 72 | 1007.9 |
| 20260507024505 | 63 | 30 | 0.9 | 5.2 | 0.00 | 0.00 | 0.00 | 73 | 1007.8 |
| 20260507024054 | 63 | 279 | 0.0 | 4.3 | 0.00 | 0.00 | 0.00 | 72 | 1007.8 |
| 20260507023549 | 64 | 355 | 1.7 | 4.3 | 0.00 | 0.00 | 0.00 | 71 | 1007.7 |
| 20260507023002 | 64 | 5 | 0.9 | 5.2 | 0.00 | 0.00 | 0.00 | 70 | 1007.7 |
| 20260507022554 | 64 | 15 | 2.6 | 5.2 | 0.00 | 0.00 | 0.00 | 71 | 1007.7 |
| 20260507022042 | 65 | 346 | 1.7 | 4.3 | 0.00 | 0.00 | 0.00 | 71 | 1007.7 |
| 20260507021502 | 65 | 344 | 1.7 | 3.5 | 0.00 | 0.00 | 0.00 | 70 | 1007.7 |
| 20260507021055 | 65 | 355 | 1.7 | 4.3 | 0.00 | 0.00 | 0.00 | 70 | 1007.6 |
| 20260507020541 | 65 | 22 | 1.7 | 4.3 | 0.00 | 0.00 | 0.00 | 70 | 1007.7 |
| 20260507020112 | 66 | 21 | 1.7 | 4.3 | 0.00 | 0.00 | 0.00 | 70 | 1007.7 |
| 20260507015551 | 66 | 40 | 1.7 | 5.2 | 0.00 | 0.00 | 0.00 | 69 | 1007.7 |
| 20260507015039 | 66 | 44 | 0.9 | 7.0 | 0.00 | 0.00 | 0.00 | 70 | 1007.7 |
| 20260507014609 | 66 | 20 | 0.9 | 7.0 | 0.00 | 0.00 | 0.00 | 68 | 1007.8 |
| 20260507014051 | 67 | 348 | 2.6 | 5.2 | 0.00 | 0.00 | 0.00 | 69 | 1007.8 |
| 20260507013538 | 67 | 33 | 1.7 | 7.8 | 0.00 | 0.00 | 0.00 | 68 | 1007.7 |
| 20260507013003 | 67 | 336 | 1.7 | 7.0 | 0.00 | 0.00 | 0.00 | 69 | 1007.7 |
| 20260507012553 | 67 | 14 | 2.6 | 6.1 | 0.00 | 0.00 | 0.00 | 69 | 1007.7 |
| 20260507012044 | 68 | 53 | 0.9 | 5.2 | 0.00 | 0.00 | 0.00 | 68 | 1007.7 |
| 20260507011503 | 68 | 351 | 2.6 | 5.2 | 0.00 | 0.00 | 0.00 | 69 | 1007.7 |
| 20260507011053 | 68 | 16 | 1.7 | 4.3 | 0.00 | 0.00 | 0.00 | 68 | 1007.7 |
| 20260507010541 | 68 | 61 | 1.7 | 7.0 | 0.00 | 0.00 | 0.00 | 70 | 1007.7 |
| 20260507005551 | 68 | 246 | 0.9 | 7.0 | 0.00 | 0.00 | 0.00 | 71 | 1007.6 |
| 20260507005039 | 68 | 5 | 2.6 | 7.0 | 0.00 | 0.00 | 0.00 | 70 | 1007.6 |
| 20260507004500 | 68 | 5 | 0.9 | 7.0 | 0.00 | 0.00 | 0.00 | 69 | 1007.6 |
| 20260507004051 | 69 | 314 | 2.6 | 7.0 | 0.00 | 0.00 | 0.00 | 68 | 1007.6 |
| 20260507003540 | 69 | 350 | 3.5 | 7.8 | 0.00 | 0.00 | 0.00 | 68 | 1007.5 |
| 20260507003101 | 69 | 71 | 4.3 | 7.8 | 0.00 | 0.00 | 0.00 | 67 | 1007.6 |
| 20260507002548 | 70 | 355 | 1.7 | 4.3 | 0.00 | 0.00 | 0.00 | 68 | 1007.5 |
| 20260507002036 | 70 | 319 | 1.7 | 7.0 | 0.00 | 0.00 | 0.00 | 67 | 1007.5 |
| 20260507001504 | 70 | 16 | 2.6 | 7.0 | 0.00 | 0.00 | 0.00 | 68 | 1007.5 |
| 20260507001056 | 70 | 324 | 0.9 | 7.0 | 0.00 | 0.00 | 0.00 | 67 | 1007.3 |
| 20260507000546 | 70 | 321 | 0.0 | 0.9 | 0.00 | 0.00 | 0.00 | 67 | 1007.5 |
| 20260507000002 | 70 | 36 | 0.0 | 0.0 | 0.00 | 0.00 | 0.00 | 65 | 1007.3 |
| 20260506235552 | 70 | 36 | 0.0 | 3.5 | 0.00 | 0.00 | 0.00 | 65 | 1007.4 |
| 20260506235042 | 70 | 36 | 1.7 | 3.5 | 0.00 | 0.00 | 0.00 | 68 | 1007.4 |
| 20260506234612 | 70 | 30 | 0.0 | 2.6 | 0.00 | 0.00 | 0.00 | 67 | 1007.4 |
| 20260506234053 | 70 | 348 | 0.9 | 2.6 | 0.00 | 0.00 | 0.00 | 65 | 1007.3 |
| 20260506233538 | 69 | 5 | 0.0 | 3.5 | 0.00 | 0.00 | 0.00 | 66 | 1007.3 |
| 20260506233043 | 69 | 33 | 0.9 | 3.5 | 0.00 | 0.00 | 0.00 | 68 | 1007.3 |
| 20260506232532 | 69 | 351 | 0.0 | 3.5 | 0.00 | 0.00 | 0.00 | 66 | 1007.4 |
| 20260506232019 | 69 | 33 | 0.0 | 2.6 | 0.00 | 0.00 | 0.00 | 68 | 1007.3 |
| 20260506231551 | 69 | 26 | 0.0 | 2.6 | 0.00 | 0.00 | 0.00 | 68 | 1007.3 |
| 20260506231030 | 69 | 22 | 0.0 | 3.5 | 0.00 | 0.00 | 0.00 | 68 | 1007.5 |
| 20260506230517 | 69 | 9 | 0.9 | 3.5 | 0.00 | 0.00 | 0.00 | 67 | 1007.5 |
| 20260506230049 | 68 | 101 | 0.0 | 1.7 | 0.00 | 0.00 | 0.00 | 67 | 1007.5 |
| 20260506225522 | 68 | 107 | 0.0 | 3.5 | 0.00 | 0.00 | 0.00 | 68 | 1007.6 |
| 20260506225001 | 68 | 328 | 0.9 | 3.5 | 0.00 | 0.00 | 0.00 | 69 | 1007.6 |
| 20260506224522 | 68 | 25 | 0.0 | 0.9 | 0.00 | 0.00 | 0.00 | 69 | 1007.7 |
| 20260506224004 | 68 | 40 | 0.0 | 0.9 | 0.00 | 0.00 | 0.00 | 69 | 1007.7 |
| 20260506223555 | 67 | 90 | 0.0 | 0.9 | 0.00 | 0.00 | 0.00 | 67 | 1007.8 |
| 20260506223017 | 68 | 203 | 0.0 | 5.2 | 0.00 | 0.00 | 0.00 | 67 | 1007.9 |
| 20260506222606 | 68 | 76 | 0.9 | 5.2 | 0.00 | 0.00 | 0.00 | 68 | 1007.8 |
| 20260506222051 | 68 | 17 | 0.0 | 3.5 | 0.00 | 0.00 | 0.00 | 69 | 1007.9 |
| 20260506221603 | 68 | 70 | 0.0 | 6.1 | 0.00 | 0.00 | 0.00 | 68 | 1007.9 |
| 20260506221048 | 68 | 64 | 2.6 | 6.1 | 0.00 | 0.00 | 0.00 | 68 | 1007.8 |
| 20260506220539 | 68 | 68 | 1.7 | 5.2 | 0.00 | 0.00 | 0.00 | 68 | 1007.9 |
| 20260506220058 | 68 | 50 | 1.7 | 4.3 | 0.00 | 0.00 | 0.00 | 68 | 1007.8 |
| 20260506215546 | 68 | 51 | 0.9 | 3.5 | 0.00 | 0.00 | 0.00 | 67 | 1007.8 |
| 20260506215032 | 68 | 323 | 0.9 | 5.2 | 0.00 | 0.00 | 0.00 | 68 | 1007.8 |
| 20260506214555 | 68 | 81 | 0.9 | 5.2 | 0.00 | 0.00 | 0.00 | 70 | 1007.7 |
| 20260506214042 | 68 | 64 | 0.9 | 3.5 | 0.00 | 0.00 | 0.00 | 69 | 1007.7 |
| 20260506213532 | 67 | 55 | 1.7 | 3.5 | 0.00 | 0.00 | 0.00 | 67 | 1007.8 |
| 20260506213103 | 68 | 86 | 0.0 | 3.5 | 0.00 | 0.00 | 0.00 | 65 | 1007.8 |
| 20260506212533 | 68 | 5 | 0.9 | 2.6 | 0.00 | 0.00 | 0.00 | 66 | 1007.9 |
| 20260506212018 | 68 | 134 | 1.7 | 5.2 | 0.00 | 0.00 | 0.00 | 67 | 1008.0 |
| 20260506211554 | 67 | 186 | 0.0 | 5.2 | 0.00 | 0.00 | 0.00 | 68 | 1008.1 |
| 20260506211030 | 67 | 148 | 1.7 | 5.2 | 0.00 | 0.00 | 0.00 | 67 | 1008.2 |
| 20260506210517 | 67 | 111 | 0.0 | 4.3 | 0.00 | 0.00 | 0.00 | 68 | 1008.1 |